Location: Twillingate Astronomical Observatory
(49.6173°N, 54.7580°W)
Time: 15:11:05
(UTC-02:-30)

Amateur Radio Satellites - All Passes

Search period start: 25 June 2016 14:41
Search period end: 26 June 2016 14:41
Location: Twillingate Astronomical Observatory, 49.6173°N, 54.7580°W

Satellite Date Start Highest point End Downlink Frequencies (MHz)
Time Altitude Azimuth
AISAT 25 Jun 14:45:46 14:48:07 14° 303° (WNW) 14:50:27 437.250
Gurwin Techsat 1B 25 Jun 14:48:47 14:53:57 50° 261° (W) 14:59:08 435.225
Cosmos 2504 25 Jun 14:52:27 15:00:25 65° 93° (E) 15:08:58 435.465 / 435.565
Oscar 19 25 Jun 15:03:36 15:07:10 19° 270° (W) 15:10:46 437.125/150
UKube-1 25 Jun 15:06:11 15:08:26 14° 304° (WNW) 15:10:41 .
RS-15 25 Jun 15:07:09 15:18:40 61° 323° (NW) 15:30:48 29.354- 29.394
TISAT 1 25 Jun 15:11:48 15:15:46 42° 291° (WNW) 15:19:44 437.305
SPROUT 25 Jun 15:14:48 15:17:12 15° 302° (WNW) 15:19:35 437.525
ITAMSAT 1 25 Jun 15:15:39 15:20:52 71° 257° (WSW) 15:26:07 435.822/435.867
YUBILEINY 25 Jun 15:17:01 15:25:08 42° 293° (WNW) 15:33:22 435.215
AIST 2 25 Jun 15:19:00 15:22:58 43° 238° (WSW) 15:26:54 435.215
Cosmos 2491 25 Jun 15:28:05 15:31:22 13° 292° (WNW) 15:34:40 435.465 / 435.565
AO-7 25 Jun 15:28:37 15:36:57 80° 66° (ENE) 15:45:21 29.400- 29.500
SWISSCUBE 25 Jun 15:28:50 15:33:38 64° 102° (ESE) 15:38:24 437.505
ITUPSAT 1 25 Jun 15:53:09 15:58:00 88° 285° (WNW) 16:02:49 437.325
BEESAT 25 Jun 15:54:35 15:59:25 85° 288° (WNW) 16:04:13 436.000
ISS 25 Jun 16:00:34 16:03:47 54° 206° (SSW) 16:06:59 145.825
KKS-1 25 Jun 16:05:58 16:09:12 20° 92° (E) 16:12:26 437.445
SO-50 25 Jun 16:16:28 16:19:08 15° 110° (ESE) 16:21:47 436.795
NOAA 18 25 Jun 16:22:52 16:25:20 13° 49° (NE) 16:27:49 137.9125
NOAA 15 25 Jun 16:32:37 16:35:55 17° 54° (NE) 16:39:11 137.62
HORYU 2 25 Jun 16:33:04 16:37:19 48° 69° (ENE) 16:41:38 437.375
Cosmos 2504 25 Jun 16:47:03 16:54:26 36° 297° (WNW) 17:02:18 435.465 / 435.565
STARS 25 Jun 16:47:43 16:51:25 26° 94° (E) 16:55:07 437.465
AIST 1 25 Jun 16:54:11 16:56:35 15° 84° (E) 16:58:59
Cubesat XI-IV 25 Jun 16:56:12 16:59:53 19° 55° (NE) 17:03:34 437.490
ITAMSAT 1 25 Jun 17:00:00 17:01:18 11° 276° (W) 17:02:36 435.822/435.867
BRITE-PL 25 Jun 17:04:17 17:08:08 23° 63° (ENE) 17:11:46 437.365/2234.400
MOZHAYETS 4 25 Jun 17:05:45 17:10:25 67° 102° (ESE) 17:15:01
SWISSCUBE 25 Jun 17:07:28 17:11:00 21° 301° (WNW) 17:14:33 437.505
YUBILEINY 25 Jun 17:22:36 17:25:07 11° 321° (NW) 17:27:38 435.215
RS-15 25 Jun 17:23:04 17:34:06 40° 356° (N) 17:45:29 29.354- 29.394
AO-7 25 Jun 17:23:44 17:30:35 28° 268° (W) 17:37:31 29.400- 29.500
GONETS M04 25 Jun 17:25:11 17:29:49 16° 71° (ENE) 17:34:27
CUTE-I 25 Jun 17:30:21 17:35:05 33° 63° (ENE) 17:39:51 437.470
ITUPSAT 1 25 Jun 17:32:24 17:35:09 15° 305° (NW) 17:37:55 437.325
BEESAT 25 Jun 17:33:55 17:36:30 15° 305° (NW) 17:39:05 436.000
ISS 25 Jun 17:38:22 17:39:39 12° 224° (SW) 17:40:55 145.825
DOVE 4 25 Jun 17:40:21 17:40:50 10° 55° (NE) 17:41:18 437.250
KKS-1 25 Jun 17:41:45 17:46:05 53° 290° (WNW) 17:50:25 437.445
DANDE 25 Jun 17:47:01 17:47:50 10° 42° (NE) 17:48:37 436.750
Cosmos 2499 25 Jun 17:51:29 17:55:49 15° 69° (ENE) 18:00:15 435.465 / 435.565
SO-50 25 Jun 17:54:01 17:58:55 84° 128° (SE) 18:03:48 436.795
GOMX 1 25 Jun 17:56:01 17:59:57 29° 66° (ENE) 18:03:44 467.674
CUSAT 1 25 Jun 17:56:27 17:59:01 15° 54° (NE) 18:01:15 437.405
NOAA 18 25 Jun 17:59:35 18:04:58 62° 69° (ENE) 18:10:24 137.9125
LilacSat-2 25 Jun 18:01:39 18:05:13 42° 70° (ENE) 18:08:50 437.200
NOAA 15 25 Jun 18:09:39 18:14:58 86° 74° (ENE) 18:20:17 137.62
HORYU 2 25 Jun 18:10:44 18:14:09 21° 268° (W) 18:17:35 437.375
CUBESAT XI-V 25 Jun 18:23:41 18:28:15 53° 100° (E) 18:32:45 437.345
STARS 25 Jun 18:23:48 18:27:54 39° 293° (WNW) 18:32:00 437.465
AIST 1 25 Jun 18:29:22 18:33:40 64° 283° (WNW) 18:37:58
Cubesat XI-IV 25 Jun 18:33:58 18:39:19 84° 255° (WSW) 18:44:45 437.490
BRITE-PL 25 Jun 18:41:18 18:46:21 57° 260° (W) 18:51:02 437.365/2234.400
HO-68 25 Jun 18:41:21 18:47:22 30° 54° (NE) 18:53:24 435.675
MOZHAYETS 4 25 Jun 18:43:51 18:47:06 19° 301° (WNW) 18:50:21
CINEMA 3 25 Jun 18:59:03 19:01:52 18° 61° (ENE) 19:04:42 145.822/145.860
CUTE-I 25 Jun 19:09:56 19:15:01 44° 262° (W) 19:20:09 437.470
DOVE 4 25 Jun 19:13:29 19:17:50 73° 73° (ENE) 19:22:02 437.250
CANX-2 25 Jun 19:15:03 19:18:36 26° 65° (ENE) 19:22:11 2200.000
GONETS M04 25 Jun 19:16:19 19:24:55 68° 93° (E) 19:33:31
CUBEBUG 2 25 Jun 19:21:32 19:22:45 11° 55° (NE) 19:23:58 437.445
DANDE 25 Jun 19:26:56 19:32:48 49° 70° (ENE) 19:37:07 436.750
COMPASS 1 25 Jun 19:31:10 19:34:07 19° 61° (ENE) 19:37:06 437.405
GOMX 1 25 Jun 19:33:41 19:38:00 37° 263° (W) 19:42:06 467.674
CUTE 1.7 + AOD 2 25 Jun 19:35:20 19:39:13 35° 68° (ENE) 19:43:09 437.475
SO-50 25 Jun 19:35:53 19:39:59 26° 329° (NNW) 19:44:03 436.795
LilacSat-2 25 Jun 19:37:05 19:39:45 18° 268° (W) 19:42:27 437.200
CUSAT 1 25 Jun 19:37:31 19:41:54 57° 264° (W) 19:45:14 437.405
RS-15 25 Jun 19:38:10 19:50:01 51° 29° (NNE) 20:01:58 29.354- 29.394
Cosmos 2499 25 Jun 19:38:54 19:47:03 64° 93° (E) 19:55:44 435.465 / 435.565
NOAA 18 25 Jun 19:41:46 19:46:04 23° 268° (W) 19:50:24 137.9125
SEEDS 25 Jun 19:45:47 19:49:36 33° 67° (ENE) 19:53:27 437.485
M-CUBED/EXP-1 PRIME 25 Jun 19:47:27 19:49:55 20° 59° (ENE) 19:52:25 437.505
NOAA 15 25 Jun 19:52:20 19:55:26 16° 272° (W) 19:58:34 137.62
STRAND 1 25 Jun 19:57:31 20:02:17 36° 96° (E) 20:07:00 437.568
CUBESAT XI-V 25 Jun 20:01:43 20:05:19 23° 299° (WNW) 20:08:53 437.345
ZACube-1 25 Jun 20:02:04 20:04:12 14° 57° (ENE) 20:06:21 437.345
UWE-3 25 Jun 20:13:45 20:17:05 23° 63° (ENE) 20:20:30 435.000/436.395/437.385
Oscar 11 25 Jun 20:17:31 20:20:43 20° 61° (ENE) 20:23:56 145.826/435.025
Cubesat XI-IV 25 Jun 20:17:37 20:20:14 14° 274° (W) 20:22:53 437.490
FUNcube-1 25 Jun 20:20:36 20:23:32 19° 60° (ENE) 20:26:32 145.935
HO-68 25 Jun 20:27:24 20:34:33 73° 255° (WSW) 20:41:46 435.675
AAUSAT CUBESAT 2 25 Jun 20:34:28 20:38:36 59° 72° (ENE) 20:42:45 437.432
CINEMA 3 25 Jun 20:34:35 20:38:40 55° 260° (W) 20:42:46 145.822/145.860
AUBIESAT-1 25 Jun 20:44:34 20:47:51 74° 68° (ENE) 20:51:12 437.475
CANX-2 25 Jun 20:50:18 20:54:18 38° 263° (W) 20:58:22 2200.000
DOVE 4 25 Jun 20:53:58 20:56:02 13° 271° (W) 20:58:06 437.250
CUBEBUG 2 25 Jun 20:54:27 20:58:37 78° 74° (ENE) 21:02:53 437.445
COMPASS 1 25 Jun 21:05:11 21:09:19 56° 260° (W) 21:13:30 437.405
DANDE 25 Jun 21:10:34 21:15:01 23° 278° (W) 21:18:36 436.750
CUTE 1.7 + AOD 2 25 Jun 21:11:26 21:15:07 28° 266° (W) 21:18:51 437.475
GONETS M04 25 Jun 21:14:44 21:22:27 34° 297° (WNW) 21:30:11
DELFI C3 25 Jun 21:15:09 21:18:46 32° 67° (ENE) 21:22:23 145.870
SO-50 25 Jun 21:19:33 21:22:04 14° 353° (N) 21:24:35 436.795
M-CUBED/EXP-1 PRIME 25 Jun 21:21:27 21:24:24 30° 257° (WSW) 21:27:21 437.505
SEEDS 25 Jun 21:21:37 21:25:20 29° 266° (W) 21:29:05 437.485
PRISM 25 Jun 21:22:05 21:25:55 36° 98° (E) 21:29:41 437.425
Cosmos 2499 25 Jun 21:33:11 21:40:48 37° 296° (WNW) 21:48:49 435.465 / 435.565
ZACube-1 25 Jun 21:35:39 21:39:51 84° 255° (WSW) 21:44:11 437.345
STRAND 1 25 Jun 21:36:44 21:41:29 37° 295° (WNW) 21:46:11 437.568
HUMSAT D 25 Jun 21:42:53 21:46:35 32° 67° (ENE) 21:50:21 437.325/437.525
AO-85 25 Jun 21:46:40 21:49:42 15° 109° (ESE) 21:52:42 145.980
UWE-3 25 Jun 21:49:23 21:53:21 42° 262° (W) 21:57:26 435.000/436.395/437.385
RS-15 25 Jun 21:51:18 22:03:35 77° 237° (WSW) 22:15:50 29.354- 29.394
Oscar 11 25 Jun 21:52:15 21:56:30 53° 260° (W) 22:00:48 145.826/435.025
FUNcube-1 25 Jun 21:55:16 21:59:23 56° 260° (W) 22:03:38 145.935
AAUSAT CUBESAT 2 25 Jun 22:11:49 22:14:28 16° 271° (W) 22:17:08 437.432
ESTCUBE 1 25 Jun 22:16:31 22:19:37 18° 59° (ENE) 22:22:43 437.505/2401.250
HO-68 25 Jun 22:19:36 22:23:34 15° 276° (W) 22:27:33 435.675
CUBEBUG 2 25 Jun 22:34:12 22:35:52 12° 274° (W) 22:37:33 437.445
AISAT 25 Jun 22:34:33 22:37:32 18° 59° (ENE) 22:40:32 437.250
TIGRISAT 25 Jun 22:42:00 22:45:36 22° 92° (E) 22:49:13 435.000
UNISAT 6 25 Jun 22:45:50 22:49:39 25° 93° (E) 22:53:30 437.425
50 SAT 25 Jun 22:48:24 22:51:09 20° 63° (ENE) 22:53:54 437.505
DELFI C3 25 Jun 22:50:11 22:53:38 27° 265° (W) 22:57:09 145.870
UKube-1 25 Jun 22:53:00 22:55:51 17° 59° (ENE) 22:58:41 .
PRISM 25 Jun 22:57:41 23:01:05 25° 296° (WNW) 23:04:26 437.425
SO-50 25 Jun 23:01:16 23:04:26 17° 18° (NNE) 23:07:33 436.795
SPROUT 25 Jun 23:01:36 23:03:52 14° 58° (ENE) 23:06:07 437.525
DX 1 25 Jun 23:05:39 23:09:17 26° 63° (ENE) 23:12:54 434.975-435.025
HUMSAT D 25 Jun 23:18:33 23:22:13 29° 265° (W) 23:25:57 437.325/437.525
YUBILEINY 25 Jun 23:24:02 23:32:00 36° 64° (ENE) 23:39:56 435.215
AO-85 25 Jun 23:24:06 23:29:31 78° 128° (SE) 23:34:42 145.980
ANTELSAT 25 Jun 23:25:20 23:29:53 56° 100° (E) 23:34:29 437.575/2403.000
VELOX 1 25 Jun 23:28:51 23:33:07 51° 70° (ENE) 23:37:25 145.980
CUBEBUG 1 25 Jun 23:29:32 23:33:48 54° 71° (ENE) 23:38:04 437.445
Cosmos 2499 25 Jun 23:35:59 23:37:19 10° 324° (NW) 23:38:39 435.465 / 435.565
NANOSAT C BR1 25 Jun 23:41:58 23:44:33 16° 90° (E) 23:47:08 145.865
QB50P1 25 Jun 23:42:52 23:45:39 17° 90° (E) 23:48:25 145.935-145.965
POPSAT HIP 1 25 Jun 23:45:40 23:48:34 18° 91° (E) 23:51:27 437.405
ESTCUBE 1 25 Jun 23:51:26 23:55:57 67° 258° (WSW) 00:00:31 437.505/2401.250
QB50P2 25 Jun 23:56:43 00:00:11 24° 93° (E) 00:03:39 145.880/145.840
POLYITAN 1 25 Jun 23:59:18 00:02:49 24° 94° (E) 00:06:19 437.675
DUCHIFAT 1 26 Jun 00:03:31 00:06:58 24° 93° (E) 00:10:24 145.980
RS-15 26 Jun 00:05:08 00:14:06 25° 261° (W) 00:23:04 29.354- 29.394
AISAT 26 Jun 00:09:13 00:13:36 64° 258° (WSW) 00:17:59 437.250
TIGRISAT 26 Jun 00:18:05 00:22:32 51° 290° (WNW) 00:27:03 435.000
50 SAT 26 Jun 00:21:04 00:24:36 40° 262° (W) 00:28:09 437.505
UNISAT 6 26 Jun 00:22:10 00:26:32 45° 291° (WNW) 00:30:59 437.425
UKube-1 26 Jun 00:27:08 00:31:26 66° 257° (WSW) 00:35:46 .
TISAT 1 26 Jun 00:32:17 00:35:54 29° 65° (ENE) 00:39:32 437.305
SPROUT 26 Jun 00:34:59 00:39:14 81° 257° (WSW) 00:43:32 437.525
Cosmos 2491 26 Jun 00:38:31 00:46:18 38° 84° (E) 00:54:04 435.465 / 435.565
Cosmos 2504 26 Jun 00:39:31 00:47:31 35° 63° (ENE) 00:55:19 435.465 / 435.565
DX 1 26 Jun 00:41:13 00:45:19 39° 262° (W) 00:49:26 434.975-435.025
SO-50 26 Jun 00:41:28 00:46:04 47° 41° (NE) 00:50:30 436.795
JAS-2 26 Jun 00:55:07 00:59:46 24° 89° (E) 01:04:04 435.910
ANTELSAT 26 Jun 01:02:46 01:06:15 22° 299° (WNW) 01:09:46 437.575/2403.000
SWISSCUBE 26 Jun 01:03:35 01:06:56 19° 58° (ENE) 01:10:17 437.505
AO-85 26 Jun 01:05:54 01:10:32 29° 327° (NNW) 01:14:57 145.980
VELOX 1 26 Jun 01:06:35 01:09:53 20° 268° (W) 01:13:11 145.980
CUBEBUG 1 26 Jun 01:07:20 01:10:25 19° 269° (W) 01:13:30 437.445
BUGSAT 1 26 Jun 01:12:37 01:16:39 55° 101° (E) 01:20:41 437.445
NANOSAT C BR1 26 Jun 01:16:30 01:20:42 62° 287° (WNW) 01:24:53 145.865
QB50P1 26 Jun 01:17:37 01:21:47 58° 289° (WNW) 01:25:59 145.935-145.965
POPSAT HIP 1 26 Jun 01:20:32 01:24:41 55° 289° (WNW) 01:28:51 437.405
YUBILEINY 26 Jun 01:20:44 01:29:27 66° 267° (W) 01:38:08 435.215
ITUPSAT 1 26 Jun 01:27:21 01:31:19 26° 62° (ENE) 01:35:19 437.325
BEESAT 26 Jun 01:28:25 01:32:25 27° 62° (ENE) 01:36:26 436.000
Oscar 19 26 Jun 01:30:19 01:33:42 17° 89° (E) 01:37:04 437.125/150
QB50P2 26 Jun 01:32:09 01:36:08 40° 292° (WNW) 01:40:08 145.880/145.840
POLYITAN 1 26 Jun 01:34:46 01:38:46 39° 292° (WNW) 01:42:45 437.675
DUCHIFAT 1 26 Jun 01:38:51 01:42:49 40° 292° (WNW) 01:46:46 145.980
TISAT 1 26 Jun 02:07:47 02:11:31 32° 264° (W) 02:15:17 437.305
SO-50 26 Jun 02:22:15 02:26:25 32° 242° (WSW) 02:30:27 436.795
Cosmos 2504 26 Jun 02:32:47 02:41:39 70° 266° (W) 02:50:15 435.465 / 435.565
Cosmos 2491 26 Jun 02:34:09 02:42:47 59° 286° (WNW) 02:51:26 435.465 / 435.565
MOZHAYETS 4 26 Jun 02:36:50 02:39:38 16° 57° (ENE) 02:42:27
SWISSCUBE 26 Jun 02:39:26 02:44:13 71° 257° (WSW) 02:49:03 437.505
JAS-2 26 Jun 02:39:33 02:45:28 60° 292° (WNW) 02:50:46 435.910
BUGSAT 1 26 Jun 02:48:55 02:51:40 18° 299° (WNW) 02:54:27 437.445
AO-85 26 Jun 02:49:44 02:52:35 15° 350° (N) 02:55:20 145.980
PCSat 26 Jun 02:52:51 02:57:30 30° 111° (ESE) 03:02:11 145.827
O/OREOS (USA 219) 26 Jun 02:56:16 02:59:01 16° 100° (E) 03:01:46 437.305
BEESAT 3 26 Jun 02:56:57 02:58:12 11° 110° (ESE) 02:59:27 437.485
Gurwin Techsat 1B 26 Jun 03:00:17 03:05:25 47° 99° (E) 03:10:32 435.225
ITUPSAT 1 26 Jun 03:04:17 03:08:56 48° 261° (W) 03:13:36 437.325
BEESAT 26 Jun 03:05:25 03:10:00 45° 261° (W) 03:14:38 436.000
KKS-1 26 Jun 03:07:53 03:11:46 31° 65° (ENE) 03:15:40 437.445
Oscar 19 26 Jun 03:08:28 03:13:37 74° 287° (WNW) 03:18:42 437.125/150
YUBILEINY 26 Jun 03:19:53 03:24:26 15° 290° (WNW) 03:28:59 435.215
ITAMSAT 1 26 Jun 03:24:20 03:28:55 30° 95° (E) 03:33:28 435.822/435.867
AO-7 26 Jun 03:26:33 03:32:12 19° 87° (E) 03:37:50 29.400- 29.500
GONETS M04 26 Jun 03:26:34 03:29:23 12° 40° (NE) 03:32:12
BEESAT 2 26 Jun 03:27:47 03:29:46 14° 111° (ESE) 03:31:46 435.950
STARS 26 Jun 03:48:16 03:52:20 39° 67° (ENE) 03:56:25 437.465
CUBESAT XI-V 26 Jun 03:56:32 03:58:54 14° 56° (NE) 04:01:16 437.345
MOZHAYETS 4 26 Jun 04:11:35 04:16:12 81° 255° (WSW) 04:20:54
JAS-2 26 Jun 04:26:36 04:29:12 13° 315° (NW) 04:31:42 435.910
Cosmos 2504 26 Jun 04:28:09 04:33:21 17° 289° (WNW) 04:38:30 435.465 / 435.565
BEESAT 3 26 Jun 04:31:17 04:35:13 87° 129° (SE) 04:39:12 437.485
AIST 1 26 Jun 04:31:47 04:35:56 48° 75° (ENE) 04:40:03
AO-85 26 Jun 04:31:56 04:35:00 16° 15° (NNE) 04:37:57 145.980
O/OREOS (USA 219) 26 Jun 04:33:24 04:37:54 68° 299° (WNW) 04:42:23 437.305
PCSat 26 Jun 04:35:19 04:40:38 55° 312° (NW) 04:46:01 145.827
Cosmos 2491 26 Jun 04:36:47 04:41:55 16° 313° (NW) 04:47:04 435.465 / 435.565
Gurwin Techsat 1B 26 Jun 04:40:34 04:45:12 31° 298° (WNW) 04:49:49 435.225
KKS-1 26 Jun 04:44:16 04:48:18 34° 263° (W) 04:52:21 437.445
Oscar 19 26 Jun 04:49:30 04:52:06 14° 308° (NW) 04:54:42 437.125/150
BEESAT 2 26 Jun 05:03:04 05:07:02 81° 310° (NW) 05:11:03 435.950
ITAMSAT 1 26 Jun 05:03:34 05:08:34 46° 294° (WNW) 05:13:31 435.822/435.867
AO-7 26 Jun 05:17:54 05:26:21 78° 108° (ESE) 05:34:44 29.400- 29.500
GONETS M04 26 Jun 05:21:02 05:29:16 43° 68° (ENE) 05:37:28
AIST 2 26 Jun 05:22:22 05:24:16 13° 110° (ESE) 05:26:11 435.215
Cosmos 2499 26 Jun 05:24:56 05:32:49 34° 62° (ENE) 05:40:24 435.465 / 435.565
STARS 26 Jun 05:25:11 05:28:50 25° 266° (W) 05:32:29 437.465
CUBESAT XI-V 26 Jun 05:30:51 05:35:34 83° 73° (ENE) 05:40:18 437.345
STRAND 1 26 Jun 05:41:28 05:44:17 15° 53° (NE) 05:47:07 437.568
MOZHAYETS 4 26 Jun 05:52:58 05:54:09 11° 275° (W) 05:55:22
HORYU 2 26 Jun 05:55:48 06:00:13 52° 101° (E) 06:04:36 437.375
AIST 1 26 Jun 06:10:12 06:13:11 19° 274° (W) 06:16:09
BEESAT 3 26 Jun 06:10:30 06:13:26 20° 329° (NNW) 06:16:23 437.485
AO-85 26 Jun 06:12:15 06:16:47 41° 39° (NE) 06:20:56 145.980
O/OREOS (USA 219) 26 Jun 06:15:55 06:18:11 14° 321° (NW) 06:20:28 437.305
NOAA 18 26 Jun 06:18:03 06:21:48 18° 89° (E) 06:25:32 137.9125
NOAA 15 26 Jun 06:20:59 06:25:07 23° 92° (E) 06:29:13 137.62
PCSat 26 Jun 06:21:30 06:25:14 18° 335° (NNW) 06:29:01 145.827
BRITE-PL 26 Jun 06:41:55 06:45:35 29° 95° (E) 06:49:12 437.365/2234.400
BEESAT 2 26 Jun 06:42:40 06:45:30 18° 331° (NNW) 06:48:20 435.950
Cubesat XI-IV 26 Jun 06:47:06 06:51:44 28° 93° (E) 06:56:21 437.490
AIST 2 26 Jun 06:58:00 07:02:08 88° 302° (WNW) 07:06:18 435.215
DANDE 26 Jun 06:59:01 07:02:28 13° 75° (ENE) 07:05:49 436.750
CUSAT 1 26 Jun 07:01:07 07:06:43 23° 86° (E) 07:11:45 437.405
LilacSat-2 26 Jun 07:04:46 07:08:22 35° 97° (E) 07:11:57 437.200
DOVE 4 26 Jun 07:08:52 07:10:56 13° 89° (E) 07:13:01 437.250
CUBESAT XI-V 26 Jun 07:11:11 07:13:35 14° 273° (W) 07:15:59 437.345
AO-7 26 Jun 07:11:18 07:18:28 33° 310° (NW) 07:25:36 29.400- 29.500
STRAND 1 26 Jun 07:17:31 07:22:39 78° 73° (ENE) 07:27:51 437.568
Cosmos 2499 26 Jun 07:17:55 07:26:46 71° 266° (W) 07:35:10 435.465 / 435.565
GONETS M04 26 Jun 07:17:59 07:26:19 53° 271° (W) 07:34:40
CUTE-I 26 Jun 07:22:04 07:27:22 54° 100° (E) 07:32:38 437.470
GOMX 1 26 Jun 07:30:17 07:34:14 41° 98° (E) 07:38:16 467.674
HORYU 2 26 Jun 07:33:00 07:36:28 22° 299° (WNW) 07:39:55 437.375
HO-68 26 Jun 07:51:29 07:56:13 18° 86° (E) 08:00:55 435.675
AO-85 26 Jun 07:53:00 07:57:12 35° 242° (WSW) 08:01:03 145.980
NOAA 18 26 Jun 07:57:33 08:03:07 80° 289° (WNW) 08:08:40 137.9125
NOAA 15 26 Jun 08:00:07 08:05:18 59° 291° (WNW) 08:10:26 137.62
PCSat 26 Jun 08:08:43 08:10:56 12° 1° (N) 08:13:09 145.827
PRISM 26 Jun 08:15:18 08:19:19 49° 70° (ENE) 08:23:20 437.425
BRITE-PL 26 Jun 08:20:25 08:24:08 30° 294° (WNW) 08:27:46 437.365/2234.400
CINEMA 3 26 Jun 08:24:27 08:28:08 25° 94° (E) 08:31:55 145.822/145.860
Cubesat XI-IV 26 Jun 08:26:51 08:32:03 50° 293° (WNW) 08:37:13 437.490
CANX-2 26 Jun 08:30:56 08:34:38 27° 94° (E) 08:38:17 2200.000
DANDE 26 Jun 08:35:47 08:43:54 55° 94° (E) 08:51:26 436.750
AIST 2 26 Jun 08:38:06 08:41:12 20° 330° (NNW) 08:44:19 435.215
LilacSat-2 26 Jun 08:39:25 08:42:31 23° 295° (WNW) 08:45:38 437.200
CUSAT 1 26 Jun 08:40:27 08:48:19 87° 283° (WNW) 08:54:53 437.405
CUBEBUG 2 26 Jun 08:42:01 08:44:15 13° 87° (E) 08:46:30 437.445
COMPASS 1 26 Jun 08:44:28 08:47:21 18° 90° (E) 08:50:13 437.405
DOVE 4 26 Jun 08:44:55 08:49:09 74° 285° (WNW) 08:53:33 437.250
CUTE 1.7 + AOD 2 26 Jun 08:51:18 08:55:20 37° 97° (E) 08:59:19 437.475
ANTELSAT 26 Jun 08:54:55 08:56:39 12° 55° (NE) 08:58:23 437.575/2403.000
STRAND 1 26 Jun 08:59:12 09:02:28 17° 272° (W) 09:05:44 437.568
SEEDS 26 Jun 09:00:36 09:04:31 34° 96° (E) 09:08:23 437.485
CUTE-I 26 Jun 09:02:38 09:07:09 28° 300° (WNW) 09:11:37 437.470
AO-7 26 Jun 09:05:54 09:08:42 12° 335° (NNW) 09:11:29 29.400- 29.500
GOMX 1 26 Jun 09:08:54 09:12:11 23° 296° (WNW) 09:15:30 467.674
Cosmos 2499 26 Jun 09:12:58 09:18:12 18° 289° (WNW) 09:23:21 435.465 / 435.565
GONETS M04 26 Jun 09:18:46 09:20:58 11° 294° (WNW) 09:23:09
ZACube-1 26 Jun 09:20:32 09:23:13 15° 88° (E) 09:25:54 437.345
BEESAT 3 26 Jun 09:30:39 09:32:07 12° 17° (NNE) 09:33:34 437.485
UWE-3 26 Jun 09:34:10 09:38:09 29° 94° (E) 09:42:10 435.000/436.395/437.385
Oscar 11 26 Jun 09:35:34 09:38:55 21° 92° (E) 09:42:14 145.826/435.025
HO-68 26 Jun 09:37:46 09:45:02 82° 107° (ESE) 09:52:15 435.675
FUNcube-1 26 Jun 09:39:07 09:42:35 21° 92° (E) 09:46:04 145.935
NOAA 18 26 Jun 09:39:35 09:42:58 17° 308° (NW) 09:46:22 137.9125
NOAA 15 26 Jun 09:42:09 09:44:03 12° 311° (NW) 09:45:56 137.62
TIGRISAT 26 Jun 09:44:53 09:48:38 30° 65° (ENE) 09:52:29 435.000
PHONESAT 2.4 26 Jun 09:46:41 09:48:15 13° 169° (S) 09:49:50 2401.200-2431.200
AAUSAT CUBESAT 2 26 Jun 09:47:44 09:51:54 61° 101° (E) 09:56:00 437.432
UNISAT 6 26 Jun 09:48:52 09:52:47 35° 66° (ENE) 09:56:47 437.425
PRISM 26 Jun 09:51:53 09:54:54 19° 268° (W) 09:57:55 437.425
PCSat 26 Jun 09:52:33 09:56:33 20° 28° (NNE) 10:00:31 145.827
AUBIESAT-1 26 Jun 09:52:44 09:55:58 26° 102° (ESE) 09:59:24 437.475
CINEMA 3 26 Jun 10:01:15 10:05:26 43° 291° (WNW) 10:09:47 145.822/145.860
BEESAT 2 26 Jun 10:02:43 10:04:31 13° 19° (NNE) 10:06:20 435.950
CANX-2 26 Jun 10:06:37 10:10:34 36° 293° (WNW) 10:14:29 2200.000
Cubesat XI-IV 26 Jun 10:10:03 10:10:56 10° 313° (NW) 10:11:49 437.490
CUBEBUG 2 26 Jun 10:16:53 10:21:27 83° 283° (WNW) 10:26:07 437.445
DANDE 26 Jun 10:18:59 10:26:57 44° 292° (WNW) 10:34:15 436.750
COMPASS 1 26 Jun 10:19:07 10:23:15 53° 289° (WNW) 10:27:19 437.405
ISS 26 Jun 10:19:13 10:21:46 21° 143° (SE) 10:24:21 145.825
AIST 2 26 Jun 10:20:50 10:21:16 10° 354° (N) 10:21:42 435.215
DELFI C3 26 Jun 10:23:04 10:26:34 28° 95° (E) 10:30:02 145.870
DOVE 4 26 Jun 10:25:20 10:26:10 10° 304° (NW) 10:27:00 437.250
CUSAT 1 26 Jun 10:25:27 10:31:04 22° 299° (WNW) 10:36:02 437.405
CUTE 1.7 + AOD 2 26 Jun 10:27:26 10:31:03 27° 295° (WNW) 10:34:38 437.475
ANTELSAT 26 Jun 10:28:18 10:32:36 81° 76° (ENE) 10:37:03 437.575/2403.000
M-CUBED/EXP-1 PRIME 26 Jun 10:29:17 10:33:01 75° 110° (ESE) 10:37:02 437.505
SEEDS 26 Jun 10:36:28 10:40:08 28° 295° (WNW) 10:43:46 437.485
NANOSAT C BR1 26 Jun 10:38:08 10:41:18 21° 62° (ENE) 10:44:28 145.865
QB50P1 26 Jun 10:39:22 10:42:39 23° 63° (ENE) 10:45:56 145.935-145.965
POPSAT HIP 1 26 Jun 10:42:14 10:45:34 23° 63° (ENE) 10:48:56 437.405
Cosmos 2491 26 Jun 10:42:31 10:49:24 25° 57° (ENE) 10:56:15 435.465 / 435.565
QB50P2 26 Jun 10:53:22 10:57:05 31° 66° (ENE) 11:00:49 145.880/145.840
ZACube-1 26 Jun 10:55:29 10:59:59 72° 286° (WNW) 11:04:32 437.345
POLYITAN 1 26 Jun 10:55:58 10:59:42 32° 66° (ENE) 11:03:26 437.675
HUMSAT D 26 Jun 10:57:01 11:00:57 33° 96° (E) 11:04:50 437.325/437.525
DUCHIFAT 1 26 Jun 10:59:27 11:03:07 31° 66° (ENE) 11:06:48 145.980
BEESAT 3 26 Jun 11:07:18 11:10:56 33° 40° (NE) 11:14:34 437.485
UWE-3 26 Jun 11:10:29 11:14:41 38° 292° (WNW) 11:18:56 435.000/436.395/437.385
JAS-2 26 Jun 11:11:03 11:16:52 26° 56° (NE) 11:22:17 435.910
Oscar 11 26 Jun 11:11:05 11:15:18 48° 290° (WNW) 11:19:29 145.826/435.025
FUNcube-1 26 Jun 11:14:44 11:19:05 50° 289° (WNW) 11:23:29 145.935
TIGRISAT 26 Jun 11:21:25 11:25:18 33° 264° (W) 11:29:17 435.000
O/OREOS (USA 219) 26 Jun 11:21:48 11:24:00 13° 39° (NE) 11:26:11 437.305
PHONESAT 2.4 26 Jun 11:22:20 11:24:10 15° 186° (S) 11:26:00 2401.200-2431.200
AAUSAT CUBESAT 2 26 Jun 11:24:13 11:26:58 17° 300° (WNW) 11:29:43 437.432
UNISAT 6 26 Jun 11:25:49 11:29:33 29° 265° (W) 11:33:24 437.425
HO-68 26 Jun 11:26:16 11:32:04 27° 308° (NW) 11:37:51 435.675
AUBIESAT-1 26 Jun 11:27:06 11:30:30 33° 298° (WNW) 11:34:07 437.475
PCSat 26 Jun 11:35:34 11:41:00 65° 51° (NE) 11:46:23 145.827
BEESAT 2 26 Jun 11:39:40 11:43:26 38° 41° (NE) 11:47:11 435.950
ESTCUBE 1 26 Jun 11:40:19 11:43:33 19° 91° (E) 11:46:46 437.505/2401.250
50 SAT 26 Jun 11:47:04 11:48:49 13° 89° (E) 11:50:32 437.505
ISS 26 Jun 11:54:38 11:57:54 85° 162° (SSE) 12:01:11 145.825
CUBEBUG 2 26 Jun 11:55:15 11:57:25 13° 303° (WNW) 11:59:35 437.445
AISAT 26 Jun 11:55:49 11:58:48 18° 91° (E) 12:01:46 437.250
DELFI C3 26 Jun 11:57:52 12:01:26 30° 293° (WNW) 12:04:56 145.870
AIST 2 26 Jun 11:59:31 12:01:34 13° 19° (NNE) 12:03:36 435.215
M-CUBED/EXP-1 PRIME 26 Jun 12:05:16 12:07:11 14° 306° (NW) 12:09:11 437.505
BUGSAT 1 26 Jun 12:06:20 12:10:19 69° 73° (ENE) 12:14:20 437.445
ANTELSAT 26 Jun 12:08:08 12:09:58 12° 273° (W) 12:11:50 437.575/2403.000
DANDE 26 Jun 12:08:23 12:11:45 13° 313° (NW) 12:14:59 436.750
UKube-1 26 Jun 12:11:02 12:13:34 15° 90° (E) 12:16:05 .
NANOSAT C BR1 26 Jun 12:12:43 12:16:45 47° 261° (W) 12:20:50 145.865
QB50P1 26 Jun 12:14:11 12:18:12 44° 261° (W) 12:22:14 145.935-145.965
POPSAT HIP 1 26 Jun 12:17:11 12:21:09 41° 261° (W) 12:25:10 437.405
SPROUT 26 Jun 12:18:06 12:20:10 13° 88° (E) 12:22:12 437.525
RS-15 26 Jun 12:19:43 12:30:20 47° 111° (ESE) 12:41:28 29.354- 29.394
DX 1 26 Jun 12:25:02 12:28:39 25° 94° (E) 12:32:14 434.975-435.025
QB50P2 26 Jun 12:29:10 12:32:53 30° 264° (W) 12:36:39 145.880/145.840
YUBILEINY 26 Jun 12:31:33 12:38:58 33° 82° (E) 12:46:26 435.215
POLYITAN 1 26 Jun 12:31:50 12:35:31 29° 265° (W) 12:39:14 437.675
HUMSAT D 26 Jun 12:32:44 12:36:31 30° 294° (WNW) 12:40:18 437.325/437.525
ZACube-1 26 Jun 12:33:58 12:35:30 12° 305° (NW) 12:37:01 437.345
DUCHIFAT 1 26 Jun 12:35:06 12:38:47 30° 264° (W) 12:42:31 145.980
Cosmos 2491 26 Jun 12:38:50 12:47:37 89° 82° (E) 12:56:21 435.465 / 435.565
AO-7 26 Jun 12:42:38 12:46:48 15° 31° (NNE) 12:50:58 29.400- 29.500
BEESAT 3 26 Jun 12:45:00 12:48:40 36° 239° (WSW) 12:52:18 437.485
Gurwin Techsat 1B 26 Jun 12:47:52 12:51:41 21° 57° (ENE) 12:55:31 435.225
CUBEBUG 1 26 Jun 12:49:47 12:54:04 59° 101° (ESE) 12:58:20 437.445
VELOX 1 26 Jun 12:50:45 12:55:05 55° 101° (E) 12:59:23 145.980
Oscar 19 26 Jun 12:50:54 12:55:40 40° 65° (ENE) 13:00:27 437.125/150
JAS-2 26 Jun 12:53:34 13:01:16 87° 254° (WSW) 13:08:16 435.910
O/OREOS (USA 219) 26 Jun 12:59:50 13:04:18 67° 60° (ENE) 13:08:46 437.305
ITAMSAT 1 26 Jun 13:10:28 13:12:59 14° 51° (NE) 13:15:30 435.822/435.867
ESTCUBE 1 26 Jun 13:16:17 13:20:44 56° 289° (WNW) 13:25:07 437.505/2401.250
BEESAT 2 26 Jun 13:17:40 13:21:13 31° 241° (WSW) 13:24:45 435.950
50 SAT 26 Jun 13:19:12 13:22:54 60° 287° (WNW) 13:26:31 437.505
PCSat 26 Jun 13:19:37 13:23:59 25° 250° (WSW) 13:28:18 145.827
Cosmos 2504 26 Jun 13:25:07 13:31:06 23° 75° (ENE) 13:37:20 435.465 / 435.565
ISS 26 Jun 13:31:15 13:34:30 57° 1° (N) 13:37:44 145.825
AISAT 26 Jun 13:31:20 13:35:40 58° 289° (WNW) 13:39:58 437.250
AIST 2 26 Jun 13:37:14 13:41:09 38° 41° (NE) 13:45:04 435.215
BUGSAT 1 26 Jun 13:44:18 13:46:11 13° 271° (W) 13:48:04 437.445
UKube-1 26 Jun 13:45:47 13:50:04 67° 288° (WNW) 13:54:21 .
TISAT 1 26 Jun 13:46:58 13:50:36 28° 95° (E) 13:54:13 437.305
SPROUT 26 Jun 13:52:21 13:56:39 76° 285° (WNW) 14:00:54 437.525
DX 1 26 Jun 14:00:55 14:04:59 40° 293° (WNW) 14:09:02 434.975-435.025
Gurwin Techsat 1B 26 Jun 14:25:46 14:31:05 76° 256° (WSW) 14:36:27 435.225
CUBEBUG 1 26 Jun 14:26:58 14:29:58 19° 300° (WNW) 14:32:57 437.445
VELOX 1 26 Jun 14:27:59 14:31:12 20° 300° (WNW) 14:34:25 145.980
Oscar 19 26 Jun 14:30:25 14:35:04 33° 264° (W) 14:39:43 437.125/150
